Location: *
(46.3333°S, 33.3333°W)
Time: 12:09:16
(UTC+00:00)

Daily predictions for brighter satellites

Satellite Brightness Start Highest point End
(mag) Time Altitude Azimuth Time Altitude Azimuth Time Altitude Azimuth
Cosmos 1110 Rocket 4.2 20:32:23 10° SSW 20:37:32 52° ESE 20:42:40 10° NE
H-2A R/B 2.7 20:35:58 10° SSE 20:39:45 63° E 20:43:27 10° N
Cosmos 1025 Rocket 4.2 20:37:24 10° NE 20:40:48 22° E 20:44:17 10° SE
Unknown 4.2 20:37:16 10° SW 20:41:22 46° SSE 20:45:27 10° E
Unknown 4.2 20:38:56 10° SW 20:43:03 47° SSE 20:47:08 10° E
USA 267 3.7 20:37:09 10° NE 20:43:42 68° NW 20:50:19 10° SW
BREEZE M DEB (TANK) 2.3 20:41:19 10° WSW 20:43:48 47° S 20:46:10 10° E
Unknown 4.2 20:40:33 10° SW 20:44:40 48° SSE 20:48:46 10° E
Unknown 4.2 20:42:13 10° SW 20:46:21 49° SSE 20:50:27 10° E
Cosmos 1733 4.2 20:43:42 10° SSE 20:47:05 28° ESE 20:50:25 10° NE
SMAP 3.1 20:42:23 10° SSE 20:47:10 90° NE 20:51:52 10° NNW
APEX 3.7 20:44:02 10° N 20:47:25 41° ENE 20:51:41 10° SE
Unknown 4.2 20:43:55 10° SW 20:48:02 49° SSE 20:52:05 10° E
Cosmos 1607 4.2 20:43:41 10° SW 20:50:08 81° NW 20:56:28 10° NNE
Unknown 4.1 20:47:14 10° SW 20:51:22 51° SSE 20:55:16 11° E
Cosmos 1844 Rocket 4.1 20:47:37 10° S 20:51:59 22° SE 20:56:09 11° E
Starlink (trailer) 4.1 20:48:55 10° SW 20:53:04 52° SSE 20:56:54 12° E
USA 229 DEB 4.0 20:46:45 10° NW 20:54:21 89° SW 21:01:41 10° SE
USA 229 4.0 20:46:51 10° NW 20:54:25 89° SW 21:01:45 10° SE
Unknown 4.1 20:50:35 10° SW 20:54:45 53° SSE 20:58:30 12° E
Meteor 1-22 Rocket 4.3 20:49:44 10° S 20:55:22 65° ESE 21:01:09 10° NNE
Unknown 4.0 20:52:13 10° SW 20:56:22 54° SSE 21:00:03 13° E
YAOGAN 6 3.3 20:54:04 10° SSE 20:57:18 30° E 21:00:32 10° NNE
Cosmos 1536 Rocket 4.1 20:53:47 10° NNE 20:57:55 39° E 21:02:08 10° SSE
SL-24 R/B 4.5 20:53:39 10° NNE 20:59:02 89° ESE 21:03:41 10° SSW
Cosmos 1544 Rocket 3.6 20:54:51 10° S 20:59:22 80° E 21:03:51 10° NNE
Cosmos 1455 Rocket 3.2 20:55:07 10° S 20:59:34 83° W 21:03:58 10° N
NOSS 3-1 (A) 4.1 20:51:32 10° NNW 21:00:07 68° ENE 21:07:43 10° SE
SL-24 R/B - RUBIN 2 3.6 20:55:30 10° SW 21:00:21 87° SE 21:04:45 10° NE
CZ-4 R/B 1.8 20:57:42 10° SSE 21:01:27 38° E 21:05:05 10° NNE
Cosmos 371 Rocket 3.5 20:58:11 10° SSW 21:03:03 52° ESE 21:07:51 10° NE
Unknown 3.9 20:58:55 10° WSW 21:03:06 58° SSE 21:06:30 15° E
Unknown 3.9 21:00:35 10° WSW 21:04:47 59° SSE 21:08:06 15° ENE
GP-B 3.1 21:00:18 10° N 21:04:48 85° E 21:09:21 10° S
Unknown 3.9 21:00:52 10° WSW 21:05:03 59° SSE 21:08:22 16° ENE
Cosmos 1766 3.3 21:02:26 10° S 21:06:33 83° E 21:10:36 10° N
Unknown 3.9 21:03:52 10° WSW 21:08:04 61° SSE 21:11:16 17° ENE
ADEOS Rocket 3.4 21:01:43 10° NNE 21:09:07 79° ESE 21:15:54 10° SSW
Unknown 3.8 21:05:39 10° WSW 21:09:52 64° SSE 21:13:00 17° ENE
Unknown 3.8 21:06:23 10° WSW 21:10:37 63° SSE 21:13:41 18° ENE
Envisat 3.0 21:05:28 10° SSE 21:10:37 62° ENE 21:15:41 10° N
Cosmos 1867 3.9 21:05:27 10° NW 21:10:49 70° SW 21:16:15 10° SSE
USA 32 4.0 21:06:07 10° N 21:11:25 85° E 21:16:47 10° S
Shenzhou-11 Module 2.7 21:08:53 10° WNW 21:11:33 37° N 21:13:08 19° NE
Cosmos 1269 Rocket 4.0 21:06:37 10° N 21:11:55 69° ENE 21:17:16 10° SSE
CENTAUR R/B 4.5 21:08:37 10° SW 21:12:48 17° S 21:16:40 10° SE
Unknown 3.8 21:08:56 10° WSW 21:13:10 66° SSE 21:16:09 18° ENE
Cosmos 2322 Rocket 2.3 21:07:59 10° N 21:13:32 57° ENE 21:19:09 10° SSE
Unknown 3.8 21:10:32 10° WSW 21:14:45 66° SSE 21:17:40 19° ENE
Unknown 3.8 21:10:58 10° WSW 21:15:11 67° SSE 21:18:05 19° ENE
Cosmos 1707 4.1 21:17:26 19° E 21:17:43 19° E 21:20:33 10° SE
Unknown 3.7 21:13:44 10° WSW 21:17:57 67° SSE 21:20:44 20° ENE
Unknown 3.6 21:16:25 10° WSW 21:20:34 84° SSE 21:23:14 21° ENE
ASTEX 1 3.5 21:15:55 10° N 21:20:55 85° W 21:26:02 10° S
Cosmos 2184 Rocket 4.0 21:14:44 10° N 21:21:04 66° E 21:27:29 10° SSE
Unknown 3.7 21:17:08 10° WSW 21:21:22 72° SSE 21:24:01 22° ENE
Unknown 3.7 21:18:50 10° WSW 21:23:05 73° SSE 21:25:39 23° ENE
Unknown 3.7 21:20:27 10° WSW 21:24:41 75° SSE 21:27:12 24° ENE
Unknown 3.6 21:22:08 10° WSW 21:26:22 77° SSE 21:28:49 24° ENE
Cosmos 1184 Rocket 2.7 21:23:01 10° S 21:26:23 83° E 21:29:40 10° NNE
Okean-O 3.6 21:22:46 10° S 21:27:10 51° WSW 21:31:30 10° NW
Cosmos 2263 Rocket 2.7 21:21:54 10° SSW 21:27:32 61° WNW 21:33:07 10° N
Cosmos 1939 Rocket 3.7 21:23:59 10° SE 21:27:34 29° E 21:29:35 19° NE
Unknown 3.6 21:25:29 10° WSW 21:29:45 80° SSE 21:32:03 26° ENE
Unknown 3.6 21:27:08 10° WSW 21:31:24 82° SSE 21:33:40 27° ENE
NOSS 3-1 (C) 4.5 21:23:21 10° NW 21:31:52 68° SW 21:39:20 10° SE
CZ-2C R/B 3.2 21:28:28 18° NE 21:32:04 40° ESE 21:37:07 10° S
Unknown 3.6 21:28:48 10° WSW 21:33:03 83° SSE 21:35:14 28° ENE
Unknown 3.6 21:30:25 10° WSW 21:34:40 84° SSE 21:36:46 29° ENE
Unknown 4.2 21:31:04 10° WSW 21:34:50 47° NW 21:37:11 20° NNE
Unknown 3.6 21:32:20 10° WSW 21:36:35 87° SE 21:38:37 30° ENE
Unknown 3.6 21:33:34 10° WSW 21:37:50 84° SSE 21:39:47 31° ENE
Unknown 3.6 21:34:33 10° WSW 21:38:46 88° NW 21:40:41 31° ENE
Cosmos 1606 Rocket 4.3 21:35:43 10° S 21:39:50 34° ESE 21:40:58 30° ENE
Cosmos 1844 4.4 21:35:57 10° SSW 21:41:09 36° SE 21:43:22 26° E
Unknown 3.6 21:36:56 10° WSW 21:41:11 87° SSE 21:43:01 33° ENE
Cosmos 2360 Rocket 2.4 21:36:03 10° N 21:41:29 47° ENE 21:46:57 10° SE
Abrixas rocket 2.4 21:38:41 10° W 21:41:48 59° S 21:42:48 37° ESE
CSL-04 Rocket 3.6 21:36:37 10° SSE 21:42:01 72° ENE 21:47:26 10° N
Unknown 3.6 21:38:36 10° WSW 21:42:51 89° SSE 21:44:36 34° ENE
Cosmos 1470 2.7 21:39:36 10° S 21:43:32 59° E 21:45:23 29° NNE
Unknown 3.6 21:40:28 10° WSW 21:44:43 84° NNW 21:46:26 35° NE
Cosmos 2327 Rocket 4.4 21:38:53 10° N 21:44:59 76° E 21:51:13 10° SSE
Cosmos 2322 4.3 21:40:47 10° NNE 21:45:43 31° ENE 21:50:42 10° SE
Cosmos 1302 Rocket 4.0 21:40:30 10° SSW 21:45:51 88° WNW 21:50:12 15° NNE
Cosmos 332 Rocket 3.9 21:41:03 10° SSW 21:46:00 79° WNW 21:50:05 15° NNE
Unknown 3.6 21:41:55 10° WSW 21:46:10 87° NNW 21:47:48 37° NE
Cosmos 1980 Rocket 4.3 21:42:22 10° WNW 21:47:16 28° SW 21:52:11 10° S
Lacrosse 4 Rocket 1.4 21:43:09 10° NNW 21:47:20 60° ENE 21:51:41 10° SE
Unknown 3.6 21:43:38 10° WSW 21:47:53 85° NNW 21:49:27 38° NE
Nadezhda 3 Rocket 3.9 21:42:00 10° S 21:48:18 70° E 21:54:12 11° NNE
Unknown 4.4 21:44:31 10° WSW 21:48:19 43° NW 21:50:06 26° NNE
Cosmos 2278 Rocket 3.8 21:46:40 10° S 21:50:32 18° SE 21:52:01 17° ESE
Cosmos 724 4.4 21:44:45 10° SW 21:50:54 89° SE 21:54:52 24° NE
Unknown 3.6 21:46:54 10° WSW 21:51:09 81° NNW 21:52:35 40° NE
CSL-04 Debris 4.1 21:45:39 10° SSE 21:51:11 85° ENE 21:56:38 10° NNW
USA 215 4.3 21:45:08 10° SE 21:51:13 41° SSW 21:57:19 10° W
BREEZE-M TANK 3.1 21:42:11 10° W 21:52:09 84° N 21:53:49 36° E
Unknown 3.6 21:48:35 10° WSW 21:52:49 80° NNW 21:54:12 42° NE
Ariane Rocket 3.2 21:47:56 10° SSE 21:52:54 46° E 21:57:47 10° N
YAOGAN 1 2.7 21:48:28 10° S 21:52:54 80° WSW 21:57:17 10° NNW
Unknown 3.6 21:50:15 10° WSW 21:54:29 78° NNW 21:55:48 43° NE
Unknown 3.7 21:51:56 10° WSW 21:56:10 76° NNW 21:57:24 44° NE
Cosmos 1758 3.3 21:54:22 10° S 21:58:35 86° W 22:00:57 25° N
Unknown 3.7 21:55:15 10° WSW 21:59:28 72° NW 22:00:36 46° NE
Unknown 3.9 21:57:13 10° WSW 22:01:24 63° NW 22:02:31 44° NNE
Unknown 3.9 21:58:50 10° WSW 22:03:01 62° NW 22:04:02 45° NNE
Unknown 3.8 21:58:49 10° WSW 22:03:01 66° NW 22:04:01 47° NNE
Cosmos 304 Rocket 3.7 21:58:35 10° SSW 22:03:30 81° ESE 22:05:23 38° NNE
DMSP B5D2-2 4.3 21:58:43 10° N 22:03:59 73° WNW 22:09:18 10° SSW
Alouette 2 Rocket 3.6 22:00:50 10° S 22:04:21 46° SE 22:04:21 46° SE
Unknown 3.8 22:01:53 10° WSW 22:06:05 65° NW 22:06:57 50° NNE
ATLAS 5 CENTAUR R/B 1.9 22:02:14 10° SW 22:07:40 76° NW 22:09:25 40° NNE
SL-16 R/B 3.0 22:02:19 10° NW 22:07:52 52° WSW 22:13:29 10° SSE
Unknown 3.9 22:05:14 10° WSW 22:09:25 61° NW 22:10:10 51° N
Unknown 3.9 22:06:53 10° WSW 22:11:03 60° NW 22:11:45 51° N
Cosmos 1953 2.2 22:08:37 10° S 22:12:42 80° E 22:13:03 71° NE
Unknown 3.9 22:08:34 10° WSW 22:12:43 58° NW 22:13:21 51° N
Unknown 3.9 22:10:16 10° WSW 22:14:25 56° NW 22:14:59 51° N
Thor Agena Rocket 3.8 22:19:16 45° ESE 22:19:29 46° ESE 22:24:25 10° S
Unknown 4.1 22:16:55 10° WSW 22:21:02 50° NW 22:21:21 49° NNW
Unknown 4.1 22:18:36 10° WSW 22:22:42 49° NW 22:22:58 48° NNW
Cosmos 2251 Rocket 3.4 22:17:26 10° NNW 22:22:46 82° ENE 22:28:07 10° SSE
Unknown 4.2 22:20:13 10° WSW 22:24:18 48° NW 22:24:31 47° NNW
ATLAS 3B R/B 4.2 22:18:54 10° SSW 22:25:05 27° SSE 22:28:15 20° ESE
Unknown 4.2 22:21:54 10° WSW 22:25:59 46° NW 22:26:08 46° NNW
In-Cosmos 22 4.3 22:26:14 54° ENE 22:26:51 57° E 22:32:35 10° SSE
Cosmos 1992 Rocket 3.9 22:21:42 10° SSW 22:27:02 82° ESE 22:27:57 61° NE
Unknown 4.3 22:23:36 10° WSW 22:27:39 45° NW 22:27:45 45° NW
Meteor 2-17 Rocket 4.4 22:26:19 46° NNE 22:27:54 61° E 22:33:59 10° SSE
IRS-1A Rocket 4.3 22:22:21 10° SSE 22:28:22 77° ENE 22:33:45 13° N
NOAA 11 4.2 22:24:14 10° SSE 22:29:49 81° WSW 22:35:21 10° NNW
NOSS 3-2 (A) 4.3 22:23:54 10° SSW 22:30:10 36° SSE 22:31:32 33° ESE
Unknown 4.4 22:26:57 10° WSW 22:30:56 43° NW 22:30:56 43° NW
Cosmos 1726 Rocket 3.5 22:27:11 10° S 22:31:40 88° W 22:31:44 88° NNW
CZ-3B R/B 3.6 22:26:16 10° SW 22:31:44 60° SW 22:31:44 60° SW
Starlink (trailer) 4.5 22:28:39 10° WSW 22:32:34 41° NW 22:32:34 41° NW
CZ-2D R/B 4.4 22:29:51 10° S 22:33:37 44° WSW 22:37:18 10° NW
Cosmos 2228 3.0 22:30:53 10° SSW 22:35:13 78° W 22:35:13 78° W
Meteor 1-16 Rocket 4.2 22:29:23 10° S 22:35:16 85° E 22:36:44 54° NNE
CZ-4 R/B 4.0 22:33:17 10° SSW 22:36:13 20° WSW 22:39:07 10° WNW
Cosmos 1844 Rocket 2.7 22:30:50 10° SSW 22:36:32 77° WNW 22:37:50 54° N
Cosmos 2341 Rocket 3.9 22:31:15 14° N 22:36:46 89° ENE 22:43:11 10° S
Cosmos 1726 4.0 22:36:51 10° S 22:38:34 25° S 22:38:34 25° S
Cosmos 2333 Rocket 4.1 22:45:14 18° SE 22:45:14 18° SE 22:46:39 10° SE
Meteor 2-10 4.1 22:36:23 10° S 22:42:13 75° ESE 22:42:40 71° ENE
Cosmos 1892 Rocket 4.5 22:49:48 42° S 22:49:48 42° S 22:52:47 10° S
Cosmos 2366 rocket 3.9 22:49:31 64° E 22:49:31 64° E 22:55:31 10° SSE
Cosmos 2218 Rocket 3.8 22:50:12 70° E 22:50:14 70° E 22:56:26 10° SSE
Mayak 1.3 22:54:24 13° SSE 22:54:24 13° SSE 22:54:59 10° SSE
Cosmos 1707 4.3 22:52:29 31° WNW 22:53:21 35° WSW 22:57:00 10° S
SL-8 Rocket 3.9 22:55:55 58° N 22:57:15 89° W 23:03:37 10° S
Cosmos 2322 Rocket 4.2 22:53:04 10° WNW 22:57:56 28° SW 23:02:53 10° S
Cosmos 921 Rocket 4.3 22:59:54 10° SSW 23:02:30 36° SSW 23:02:30 36° SSW
CENTAUR R/B 3.5 23:00:14 10° SSW 23:05:37 29° SSE 23:05:47 29° SSE
Cosmos 1959 Rocket 4.4 23:09:08 80° NNW 23:09:31 87° W 23:16:01 10° S
Cosmos 2219 Rocket 3.9 23:14:14 23° SSE 23:14:14 23° SSE 23:16:17 10° SSE
CZ-2C R/B 4.1 23:09:58 23° NW 23:12:24 33° W 23:17:19 10° SSW
Cosmos 2058 Rocket 4.4 23:13:43 10° SSW 23:17:09 39° WSW 23:17:09 39° WSW
H-2A R/B 3.5 23:13:54 10° SSE 23:16:19 28° SSE 23:16:19 28° SSE
Cosmos 2360 Rocket 3.8 23:20:35 10° WNW 23:25:41 32° SW 23:30:49 10° SSE
Meteor 2-5 Rocket 4.2 23:27:09 59° SSW 23:27:09 59° SSW 23:31:59 10° S
Lacrosse 4 Rocket 4.0 23:23:09 10° W 23:26:26 21° SW 23:29:49 10° S
Cosmos 1727 Rocket 4.1 23:23:17 10° S 23:29:12 73° SW 23:29:12 73° SW
Resurs 01 Rocket 4.4 23:25:46 10° SSE 23:25:46 10° SSE 23:25:46 10° SSE
COSMOS 2428 4.2 23:34:47 29° SSE 23:34:47 29° SSE 23:37:34 10° SSE
USA 215 4.4 23:31:14 29° SE 23:33:19 36° S 23:39:13 10° WSW
Cosmos 2278 Rocket 3.0 23:29:47 10° SSW 23:33:52 48° SSW 23:33:52 48° SSW
USA 238 DEB 3.8 23:30:59 10° SW 23:37:16 73° SSW 23:37:16 73° SSW
USA 238 3.8 23:31:03 10° SW 23:37:21 73° SSW 23:37:21 73° SSW
Cosmos 1943 Rocket 4.4 23:35:55 10° S 23:38:08 14° SSE 23:38:08 14° SSE
